Santa Ana, CA

1:03 PM PST on December 11, 2019 (GMT -0800)
John Wayne-Orange County

Weather History for KSNA - September, 2019

Change the Weather History Date:

Friday, September 20, 2019

  Actual Average Record
Temperature  
Mean Temperature 73 °F 71 °F  
Max Temperature 79 °F 79 °F 98 °F (2015)
Min Temperature 67 °F 63 °F 57 °F (1999)
Degree Days  
Heating Degree Days 0 0  
Month to date heating degree days 0 0  
Since 1 July heating degree days 0 0  
Cooling Degree Days 8 6  
Month to date cooling degree days 236 145  
Year to date cooling degree days 913 716  
Growing Degree Days 22 (Base 50)    
Moisture  
Dew Point 59 °F    
Average Humidity 62    
Maximum Humidity 78    
Minimum Humidity 45    
Precipitation  
Precipitation 0.00 in 0.01 in 0.13 in (2005)
Month to date precipitation 0.00 0.13  
Year to date precipitation 12.51 9.16  
Sea Level Pressure  
Sea Level Pressure 29.86 in    
Wind  
Wind Speed 5 mph (South)    
Max Wind Speed 14 mph    
Max Gust Speed 18 mph    
Visibility 10 miles    
Events      
T = Trace of Precipitation, MM = Missing Value Source: NWS Daily Summary

Daily Weather History Graph

Daily Weather History Graph

Search for Another Location

Airport or City:

Astronomy

Sep. 20, 2019 Rise Set
Actual Time 6:38 AM PDT 6:51 PM PDT
Civil Twilight 6:13 AM PDT 7:16 PM PDT
Nautical Twilight 5:44 AM PDT 7:45 PM PDT
Astronomical Twilight 5:14 AM PDT 8:14 PM PDT
Moon 11:01 PM PDT (9/20) 12:31 PM PDT (9/20)
Length of Visible Light 13h 02m
Length of Day
12h 13m
Waning Gibbous, 64% of the Moon is Illuminated
Sep 20
Waning Gibbous
Sep 21
Last Quarter
Sep 28
New
Oct 5
First Quarter
Oct 13
Full

Hourly Weather History & Observations

Time (PDT) Temp. Dew Point Humidity Pressure Visibility Wind Dir Wind Speed Gust Speed Precip Events Conditions
12:53 AM 68.0 °F 60.1 °F 76% 29.85 in 10.0 mi SE 4.6 mph - N/A   Clear
1:30 AM 68.0 °F 60.1 °F 76% 29.86 in 10.0 mi East 3.5 mph - N/A   Mostly Cloudy
1:53 AM 69.1 °F 60.1 °F 73% 29.86 in 10.0 mi SSE 3.5 mph - N/A   Overcast
2:41 AM 68.0 °F 59.0 °F 73% 29.85 in 10.0 mi SSE 4.6 mph - N/A   Scattered Clouds
2:53 AM 68.0 °F 59.0 °F 73% 29.85 in 10.0 mi SSE 4.6 mph - N/A   Clear
3:40 AM 68.0 °F 59.0 °F 73% 29.85 in 10.0 mi ESE 3.5 mph - N/A   Mostly Cloudy
3:53 AM 69.1 °F 59.0 °F 70% 29.86 in 10.0 mi East 4.6 mph - N/A   Overcast
4:53 AM 68.0 °F 55.9 °F 65% 29.87 in 10.0 mi ESE 5.8 mph - N/A   Overcast
5:53 AM 68.0 °F 55.9 °F 65% 29.87 in 10.0 mi East 5.8 mph - N/A   Mostly Cloudy
6:53 AM 66.9 °F 55.0 °F 66% 29.88 in 10.0 mi ESE 6.9 mph - N/A   Scattered Clouds
7:53 AM 69.1 °F 55.9 °F 63% 29.89 in 10.0 mi SE 5.8 mph - N/A   Partly Cloudy
8:53 AM 72.0 °F 57.0 °F 59% 29.90 in 10.0 mi Calm Calm - N/A   Partly Cloudy
9:53 AM 75.0 °F 55.9 °F 51% 29.90 in 10.0 mi North 5.8 mph - N/A   Partly Cloudy
10:53 AM 78.1 °F 55.9 °F 46% 29.89 in 10.0 mi Variable 4.6 mph - N/A   Partly Cloudy
11:53 AM 77.0 °F 59.0 °F 54% 29.88 in 10.0 mi SSW 11.5 mph - N/A   Partly Cloudy
12:53 PM 77.0 °F 59.0 °F 54% 29.87 in 10.0 mi West 4.6 mph - N/A   Partly Cloudy
1:53 PM 79.0 °F 59.0 °F 50% 29.86 in 10.0 mi SSW 11.5 mph - N/A   Partly Cloudy
2:53 PM 79.0 °F 59.0 °F 50% 29.85 in 10.0 mi SW 10.4 mph - N/A   Partly Cloudy
3:53 PM 77.0 °F 59.0 °F 54% 29.84 in 10.0 mi WSW 10.4 mph - N/A   Clear
4:53 PM 77.0 °F 60.1 °F 56% 29.83 in 10.0 mi SW 8.1 mph - N/A   Partly Cloudy
5:53 PM 75.0 °F 59.0 °F 57% 29.82 in 10.0 mi SW 4.6 mph - N/A   Partly Cloudy
6:53 PM 73.0 °F 61.0 °F 66% 29.82 in 10.0 mi SSW 5.8 mph - N/A   Clear
7:53 PM 73.0 °F 60.1 °F 64% 29.83 in 10.0 mi WSW 3.5 mph - N/A   Clear
8:53 PM 71.1 °F 61.0 °F 70% 29.85 in 10.0 mi WSW 4.6 mph - N/A   Clear
10:53 PM 70.0 °F 61.0 °F 73% 29.87 in 10.0 mi Calm Calm - N/A   Clear
11:53 PM 70.0 °F 62.1 °F 76% 29.87 in 10.0 mi Calm Calm - N/A   Clear